Archiv-/Tagesdaten

--Timestamp---	Temp	Chill	HIndex	Humid	Dewpt	Wind	HiWind	WindDir	Rain	Barom	        Solar	ET	UV
--------------	----	-----	------	-----	-----	----	------	-------	----	-----	        -----	--	--
20090222 00:05	0.2	0.2	0.2	87	-1.7	3	6	270	0.00	1029.194	0	0.000	0
20090222 00:10	0.3	0.3	0.3	87	-1.6	2	5	270	0.00	1029.025	0	0.000	0
20090222 00:15	0.3	0.3	0.3	87	-1.6	2	5	270	0.00	1028.991	0	0.000	0
20090222 00:20	0.3	0.3	0.3	88	-1.5	3	6	247	0.00	1029.025	0	0.000	0
20090222 00:25	0.3	0.3	0.3	88	-1.5	3	8	247	0.00	1028.991	0	0.000	0
20090222 00:30	0.3	0.3	0.3	88	-1.5	5	10	247	0.00	1028.991	0	0.000	0
20090222 00:35	0.3	0.3	0.3	88	-1.4	3	8	270	0.00	1028.923	0	0.000	0
20090222 00:40	0.3	0.3	0.3	88	-1.4	5	8	270	0.00	1028.855	0	0.000	0
20090222 00:45	0.3	0.3	0.3	89	-1.3	3	8	225	0.00	1028.822	0	0.000	0
20090222 00:50	0.3	0.3	0.3	89	-1.3	5	8	247	0.00	1028.754	0	0.000	0
20090222 00:55	0.3	0.3	0.3	89	-1.3	5	10	247	0.00	1028.788	0	0.000	0
20090222 01:00	0.3	0.3	0.3	89	-1.3	5	10	270	0.00	1028.855	0	0.000	0
20090222 01:05	0.3	0.3	0.3	90	-1.2	3	8	247	0.00	1028.754	0	0.000	0
20090222 01:10	0.2	0.2	0.2	90	-1.2	3	10	247	0.00	1028.822	0	0.000	0
20090222 01:15	0.2	0.2	0.2	90	-1.3	3	6	247	0.00	1028.788	0	0.000	0
20090222 01:20	0.1	0.1	0.1	91	-1.2	3	8	247	0.00	1028.754	0	0.000	0
20090222 01:25	0.1	0.1	0.1	91	-1.2	3	8	247	0.00	1028.652	0	0.000	0
20090222 01:30	0.0	0.0	0.0	91	-1.3	3	6	270	0.00	1028.652	0	0.000	0
20090222 01:35	0.0	0.0	0.0	92	-1.1	3	6	247	0.00	1028.652	0	0.000	0
20090222 01:40	0.0	0.0	0.0	92	-1.1	3	6	247	0.00	1028.618	0	0.000	0
20090222 01:45	0.0	0.0	0.0	92	-1.1	3	5	247	0.20	1028.517	0	0.000	0
20090222 01:50	-0.1	-0.1	-0.1	92	-1.2	5	6	247	0.00	1028.517	0	0.000	0
20090222 01:55	-0.1	-0.1	-0.1	92	-1.2	2	6	247	0.00	1028.449	0	0.000	0
20090222 02:00	-0.1	-0.1	-0.1	92	-1.2	2	5	247	0.00	1028.348	0	0.000	0
20090222 02:05	-0.1	-0.1	-0.1	93	-1.0	2	6	247	0.00	1028.314	0	0.000	0
20090222 02:10	-0.1	-0.1	-0.1	93	-1.0	2	5	247	0.00	1028.212	0	0.000	0
20090222 02:15	-0.1	-0.1	-0.1	93	-1.1	2	6	247	0.00	1028.110	0	0.000	0
20090222 02:20	-0.1	-0.1	-0.1	93	-1.1	3	6	225	0.00	1028.144	0	0.000	0
20090222 02:25	-0.1	-0.1	-0.1	93	-1.1	2	6	225	0.20	1028.043	0	0.000	0
20090222 02:30	-0.1	-0.1	-0.1	93	-1.1	2	5	225	0.00	1027.907	0	0.000	0
20090222 02:35	-0.1	-0.1	-0.1	93	-1.1	3	6	247	0.00	1027.873	0	0.000	0
20090222 02:40	-0.1	-0.1	-0.1	93	-1.1	3	6	247	0.00	1027.873	0	0.000	0
20090222 02:45	-0.1	-0.1	-0.1	93	-1.1	3	8	247	0.00	1027.806	0	0.000	0
20090222 02:50	-0.1	-0.1	-0.1	93	-1.1	3	8	225	0.00	1027.772	0	0.000	0
20090222 02:55	-0.1	-0.1	-0.1	93	-1.1	3	6	247	0.00	1027.670	0	0.000	0
20090222 03:00	-0.1	-0.1	-0.1	93	-1.1	3	6	270	0.00	1027.704	0	0.000	0
20090222 03:05	-0.1	-0.1	-0.1	93	-1.1	3	6	270	0.00	1027.603	0	0.000	0
20090222 03:10	-0.1	-0.1	-0.1	93	-1.0	3	8	270	0.00	1027.569	0	0.000	0
20090222 03:15	-0.1	-0.1	-0.1	93	-1.0	3	8	270	0.00	1027.501	0	0.000	0
20090222 03:20	-0.1	-0.1	-0.1	93	-1.0	3	8	292	0.00	1027.433	0	0.000	0
20090222 03:25	-0.1	-0.1	-0.1	93	-1.0	3	6	270	0.20	1027.365	0	0.000	0
20090222 03:30	-0.1	-0.1	-0.1	93	-1.0	3	10	247	0.00	1027.298	0	0.000	0
20090222 03:35	-0.1	-0.1	-0.1	93	-1.0	5	10	247	0.00	1027.264	0	0.000	0
20090222 03:40	-0.1	-0.1	-0.1	93	-1.0	5	8	270	0.00	1027.196	0	0.000	0
20090222 03:45	-0.1	-0.1	-0.1	93	-1.0	5	8	247	0.00	1027.128	0	0.000	0
20090222 03:50	-0.1	-0.1	-0.1	93	-1.0	3	6	225	0.00	1027.027	0	0.000	0
20090222 03:55	-0.1	-0.1	-0.1	93	-1.0	3	8	225	0.00	1026.993	0	0.000	0
20090222 04:00	-0.1	-0.1	-0.1	93	-1.0	3	8	247	0.20	1026.993	0	0.000	0
20090222 04:05	-0.1	-0.1	-0.1	93	-1.1	3	8	247	0.00	1027.061	0	0.000	0
20090222 04:10	-0.1	-0.1	-0.1	93	-1.1	3	6	247	0.00	1027.061	0	0.000	0
20090222 04:15	-0.1	-0.1	-0.1	93	-1.1	3	6	247	0.00	1027.061	0	0.000	0
20090222 04:20	-0.1	-0.1	-0.1	93	-1.1	3	8	270	0.00	1027.027	0	0.000	0
20090222 04:25	-0.1	-0.1	-0.1	93	-1.1	5	8	270	0.20	1026.993	0	0.000	0
20090222 04:30	-0.1	-0.1	-0.1	93	-1.1	5	10	247	0.00	1026.993	0	0.000	0
20090222 04:35	-0.2	-0.2	-0.2	93	-1.2	3	8	247	0.00	1026.891	0	0.000	0
20090222 04:40	-0.2	-0.2	-0.2	93	-1.2	5	8	247	0.20	1026.790	0	0.000	0
20090222 04:45	-0.2	-0.2	-0.2	93	-1.2	5	8	270	0.00	1026.790	0	0.000	0
20090222 04:50	-0.2	-0.2	-0.2	93	-1.2	3	10	247	0.00	1026.790	0	0.000	0
20090222 04:55	-0.2	-0.2	-0.2	93	-1.2	3	8	247	0.20	1026.790	0	0.000	0
20090222 05:00	-0.2	-0.2	-0.2	93	-1.2	3	6	270	0.00	1026.688	0	0.000	0
20090222 05:05	-0.2	-0.2	-0.2	93	-1.2	3	6	247	0.00	1026.620	0	0.000	0
20090222 05:10	-0.2	-0.2	-0.2	94	-1.0	3	6	270	0.00	1026.553	0	0.000	0
20090222 05:15	-0.2	-0.2	-0.2	94	-1.0	5	8	270	0.20	1026.417	0	0.000	0
20090222 05:20	-0.2	-0.2	-0.2	94	-1.0	5	10	247	0.00	1026.451	0	0.000	0
20090222 05:25	-0.2	-0.2	-0.2	94	-1.0	3	8	247	0.00	1026.350	0	0.000	0
20090222 05:30	-0.2	-0.2	-0.2	94	-1.0	5	8	247	0.00	1026.146	0	0.000	0
20090222 05:35	-0.2	-0.2	-0.2	94	-1.0	5	10	247	0.20	1026.079	0	0.000	0
20090222 05:40	-0.2	-0.2	-0.2	94	-1.0	5	8	247	0.00	1026.113	0	0.000	0
20090222 05:45	-0.2	-0.2	-0.2	94	-1.0	3	6	270	0.00	1026.113	0	0.000	0
20090222 05:50	-0.2	-0.2	-0.2	94	-1.0	3	10	270	0.00	1025.943	0	0.000	0
20090222 05:55	-0.1	-0.1	-0.1	94	-1.0	3	14	270	0.00	1025.875	0	0.000	0
20090222 06:00	-0.1	-0.1	-0.1	94	-1.0	5	10	247	0.00	1025.842	0	0.000	0
20090222 06:05	-0.1	-0.1	-0.1	94	-1.0	3	8	270	0.20	1025.842	0	0.000	0
20090222 06:10	-0.1	-0.1	-0.1	94	-1.0	3	11	247	0.00	1025.842	0	0.000	0
20090222 06:15	-0.1	-0.1	-0.1	94	-1.0	5	8	247	0.00	1025.774	0	0.000	0
20090222 06:20	-0.1	-0.1	-0.1	94	-1.0	5	8	247	0.00	1025.774	0	0.000	0
20090222 06:25	-0.1	-0.1	-0.1	94	-1.0	5	11	225	0.00	1025.706	0	0.000	0
20090222 06:30	-0.1	-0.1	-0.1	94	-1.0	3	8	225	0.00	1025.706	0	0.000	0
20090222 06:35	-0.1	-0.1	-0.1	94	-1.0	3	6	247	0.00	1025.638	0	0.000	0
20090222 06:40	-0.1	-0.1	-0.1	94	-0.9	3	8	270	0.20	1025.638	0	0.000	0
20090222 06:45	-0.1	-0.1	-0.1	94	-0.9	3	6	270	0.00	1025.571	0	0.000	0
20090222 06:50	-0.1	-0.1	-0.1	94	-0.9	3	10	270	0.00	1025.537	0	0.000	0
20090222 06:55	-0.1	-0.1	-0.1	94	-0.9	5	10	247	0.00	1025.503	0	0.000	0
20090222 07:00	-0.1	-0.1	-0.1	94	-0.9	3	8	247	0.00	1025.300	0	0.000	0
20090222 07:05	-0.1	-0.1	-0.1	94	-0.9	5	10	225	0.00	1025.537	0	0.000	0
20090222 07:10	-0.1	-0.1	-0.1	94	-0.9	3	6	225	0.00	1025.401	0	0.000	0
20090222 07:15	-0.1	-0.1	-0.1	94	-0.9	3	10	270	0.00	1025.435	0	0.000	0
20090222 07:20	0.0	0.0	0.0	94	-0.8	5	10	247	0.00	1025.571	0	0.000	0
20090222 07:25	0.0	-2.2	0.0	100	-0.0	6	10	247	0.00	1025.469	0	0.000	0
20090222 07:30	0.0	0.0	0.0	94	-0.8	5	11	247	0.00	1025.469	0	0.000	0
20090222 07:35	0.1	-2.1	0.1	94	-0.8	6	10	247	0.00	1025.435	0	0.000	0
20090222 07:40	0.1	0.1	0.1	94	-0.8	5	8	247	0.00	1025.367	3	0.000	0
20090222 07:45	0.1	0.1	0.1	93	-0.9	5	11	270	0.00	1025.401	5	0.000	0
20090222 07:50	0.1	0.1	0.1	93	-0.9	5	10	247	0.00	1025.300	7	0.000	0
20090222 07:55	0.2	0.2	0.2	93	-0.8	5	16	270	0.00	1025.367	7	0.000	0
20090222 08:00	0.2	-1.9	0.2	93	-0.8	6	16	247	0.00	1025.367	9	0.000	0
20090222 08:05	0.2	-1.9	0.2	93	-0.8	6	14	270	0.00	1025.232	9	0.000	0
20090222 08:10	0.2	-1.9	0.2	93	-0.8	6	14	270	0.00	1025.232	11	0.000	0
20090222 08:15	0.3	-1.9	0.3	93	-0.7	6	16	270	0.00	1025.164	15	0.000	0
20090222 08:20	0.3	-2.4	0.3	93	-0.7	8	18	247	0.00	1025.164	19	0.000	0
20090222 08:25	0.3	0.3	0.3	93	-0.7	5	11	270	0.00	1025.232	21	0.000	0
20090222 08:30	0.3	-1.8	0.3	93	-0.7	6	13	247	0.00	1025.130	21	0.000	0
20090222 08:35	0.3	0.3	0.3	93	-0.7	5	8	247	0.00	1025.164	21	0.000	0
20090222 08:40	0.3	0.3	0.3	93	-0.7	3	11	247	0.00	1025.198	27	0.000	0
20090222 08:45	0.4	0.4	0.4	93	-0.6	5	11	247	0.00	1025.063	36	0.000	0
20090222 08:50	0.4	-1.7	0.4	93	-0.6	6	14	247	0.00	1024.961	32	0.000	0
20090222 08:55	0.4	-2.2	0.4	92	-0.7	8	16	247	0.00	1024.927	45	0.000	0
20090222 09:00	0.4	-2.2	0.4	92	-0.7	8	21	270	0.00	1024.961	53	0.000	0
20090222 09:05	0.5	-2.1	0.5	92	-0.6	8	21	247	0.00	1024.758	62	0.000	0
20090222 09:10	0.6	-2.1	0.6	92	-0.6	8	19	270	0.00	1024.521	86	0.000	0
20090222 09:15	0.7	-2.4	0.7	92	-0.5	10	21	247	0.00	1024.453	97	0.000	0
20090222 09:20	0.7	-2.0	0.7	91	-0.6	8	16	270	0.00	1024.385	98	0.000	0
20090222 09:25	0.7	-2.3	0.7	91	-0.6	10	21	247	0.00	1024.318	109	0.000	1
20090222 09:30	0.8	-2.3	0.8	90	-0.7	10	27	247	0.00	1024.284	116	0.000	1
20090222 09:35	0.8	-2.2	0.8	90	-0.6	10	21	247	0.00	1024.115	127	0.000	1
20090222 09:40	0.9	-2.1	0.9	90	-0.6	10	21	247	0.00	1024.013	146	0.000	1
20090222 09:45	0.9	-2.1	0.9	90	-0.5	10	19	247	0.00	1024.115	141	0.000	1
20090222 09:50	1.0	-1.6	1.0	90	-0.5	8	24	247	0.00	1024.216	128	0.000	1
20090222 09:55	1.0	-2.0	1.0	96	0.4	10	23	247	0.00	1024.284	117	0.000	1
20090222 10:00	1.1	-1.9	1.1	90	-0.4	10	19	247	0.00	1024.284	124	0.040	1
20090222 10:05	1.1	-1.5	1.1	89	-0.6	8	18	270	0.00	1024.115	122	0.000	1
20090222 10:10	1.2	-1.8	1.2	89	-0.4	10	21	247	0.00	1024.182	141	0.000	1
20090222 10:15	1.2	-0.8	1.2	89	-0.4	6	18	270	0.00	1024.115	122	0.000	1
20090222 10:20	1.2	-1.3	1.2	89	-0.4	8	19	247	0.00	1024.013	150	0.000	1
20090222 10:25	1.3	-1.2	1.3	89	-0.3	8	21	247	0.00	1023.844	207	0.000	1
20090222 10:30	1.3	-1.2	1.3	89	-0.3	8	16	247	0.00	1023.776	158	0.000	1
20090222 10:35	1.3	-2.0	1.3	88	-0.4	11	24	247	0.00	1023.708	161	0.000	1
20090222 10:40	1.3	-1.6	1.3	88	-0.4	10	19	247	0.00	1023.607	172	0.000	1
20090222 10:45	1.3	-2.4	1.3	87	-0.6	13	21	247	0.00	1023.505	159	0.000	1
20090222 10:50	1.3	-2.4	1.3	87	-0.6	13	26	247	0.00	1023.539	155	0.000	1
20090222 10:55	1.4	-1.9	1.4	87	-0.5	11	26	270	0.00	1023.505	146	0.000	1
20090222 11:00	1.4	-1.6	1.4	87	-0.5	10	21	247	0.00	1023.539	147	0.040	1
20090222 11:05	1.5	-1.0	1.5	87	-0.4	8	18	247	0.00	1023.471	180	0.000	1
20090222 11:10	1.6	-2.4	1.6	86	-0.5	14	26	247	0.00	1023.471	184	0.000	1
20090222 11:15	1.6	-1.7	1.6	86	-0.5	11	26	247	0.00	1023.505	184	0.000	1
20090222 11:20	1.7	-1.2	1.7	85	-0.6	10	23	270	0.00	1023.403	200	0.000	1
20090222 11:25	1.7	-1.5	1.7	85	-0.5	11	21	270	0.00	1023.437	191	0.000	1
20090222 11:30	1.7	-1.9	1.7	85	-0.6	13	27	247	0.00	1023.302	175	0.000	1
20090222 11:35	1.7	-1.2	1.7	85	-0.6	10	19	247	0.00	1023.234	174	0.000	1
20090222 11:40	1.7	-1.2	1.7	85	-0.5	10	24	247	0.00	1023.234	161	0.000	1
20090222 11:45	1.7	-1.5	1.7	85	-0.5	11	26	247	0.00	1023.166	179	0.000	1
20090222 11:50	1.8	-1.1	1.8	85	-0.5	10	24	247	0.00	1023.200	156	0.000	1
20090222 11:55	1.8	-1.5	1.8	85	-0.5	11	24	270	0.00	1023.065	161	0.000	1
20090222 12:00	1.8	-1.0	1.8	84	-0.6	10	23	270	0.00	1022.997	161	0.060	1
20090222 12:05	1.9	-1.0	1.9	84	-0.5	10	23	247	0.00	1022.760	161	0.000	1
20090222 12:10	1.9	-1.3	1.9	84	-0.5	11	23	247	0.00	1022.828	151	0.000	1
20090222 12:15	2.1	-0.8	2.1	84	-0.4	10	23	247	0.00	1022.828	176	0.000	1
20090222 12:20	2.1	-0.7	2.1	84	-0.3	10	21	247	0.00	1022.862	219	0.000	1
20090222 12:25	2.1	-0.7	2.1	84	-0.3	10	26	247	0.00	1022.862	206	0.000	1
20090222 12:30	2.1	-0.7	2.1	84	-0.3	10	21	247	0.00	1022.794	186	0.000	1
20090222 12:35	2.1	-0.7	2.1	84	-0.3	10	23	270	0.00	1022.760	199	0.000	1
20090222 12:40	2.0	-1.5	2.0	85	-0.3	13	23	270	0.00	1022.625	179	0.000	1
20090222 12:45	1.9	-1.7	1.9	86	-0.2	13	23	247	0.00	1022.557	188	0.000	1
20090222 12:50	1.8	-1.5	1.8	86	-0.3	11	26	247	0.00	1022.557	167	0.000	1
20090222 12:55	1.7	-1.2	1.7	87	-0.2	10	24	247	0.00	1022.354	142	0.000	1
20090222 13:00	1.6	-1.7	1.6	87	-0.4	11	29	247	0.00	1022.387	124	0.060	1
20090222 13:05	1.4	-1.9	1.4	88	-0.4	11	24	247	0.00	1022.557	101	0.000	1
20090222 13:10	1.3	-2.0	1.3	89	-0.3	11	24	247	0.20	1022.523	95	0.000	1
20090222 13:15	1.3	-2.0	1.3	89	-0.3	11	23	247	0.00	1022.523	94	0.000	1
20090222 13:20	1.3	-1.6	1.3	89	-0.3	10	21	247	0.00	1022.523	101	0.000	1
20090222 13:25	1.3	-1.2	1.3	89	-0.3	8	24	247	0.00	1022.455	112	0.000	1
20090222 13:30	1.4	-1.5	1.4	88	-0.3	10	19	270	0.00	1022.387	110	0.000	1
20090222 13:35	1.6	-1.4	1.6	88	-0.2	10	24	247	0.00	1022.286	128	0.000	1
20090222 13:40	1.7	-1.6	1.7	87	-0.3	11	24	270	0.00	1022.150	158	0.000	1
20090222 13:45	1.8	-1.0	1.8	86	-0.3	10	21	247	0.00	1022.083	186	0.000	1
20090222 13:50	1.9	-2.0	1.9	86	-0.2	14	29	247	0.00	1022.150	172	0.000	1
20090222 13:55	1.9	-1.6	1.9	86	-0.1	13	26	247	0.00	1021.947	161	0.000	1
20090222 14:00	1.9	-1.3	1.9	86	-0.1	11	26	247	0.00	1021.947	136	0.000	1
20090222 14:05	1.8	-1.7	1.8	86	-0.3	13	24	247	0.00	1021.846	114	0.040	1
20090222 14:10	1.7	-2.8	1.7	87	-0.3	18	29	247	0.00	1021.913	108	0.000	1
20090222 14:15	1.6	-2.6	1.6	87	-0.3	16	29	247	0.00	1021.880	124	0.000	1
20090222 14:20	1.6	-2.0	1.6	88	-0.2	13	26	247	0.00	1021.913	162	0.000	1
20090222 14:25	1.6	-2.3	1.6	88	-0.2	14	27	247	0.00	1021.947	172	0.000	1
20090222 14:30	1.4	-2.2	1.4	89	-0.2	13	21	247	0.00	1021.913	139	0.000	1
20090222 14:35	1.3	-2.0	1.3	89	-0.3	11	21	247	0.00	1022.083	81	0.000	0
20090222 14:40	1.3	-2.4	1.3	90	-0.1	13	24	270	0.00	1021.981	70	0.000	0
20090222 14:45	1.3	-2.0	1.3	90	-0.1	11	23	247	0.00	1021.880	73	0.000	0
20090222 14:50	1.3	-1.6	1.3	90	-0.1	10	21	247	0.00	1021.846	77	0.000	0
20090222 14:55	1.3	-2.0	1.3	90	-0.1	11	24	247	0.00	1021.812	80	0.000	0
20090222 15:00	1.3	-2.0	1.3	89	-0.3	11	24	270	0.00	1021.812	76	0.040	0
20090222 15:05	1.3	-2.4	1.3	89	-0.3	13	26	247	0.00	1021.812	57	0.000	0
20090222 15:10	1.4	-2.3	1.4	88	-0.4	13	26	247	0.00	1021.880	52	0.000	0
20090222 15:15	1.4	-1.1	1.4	88	-0.4	8	18	247	0.00	1021.744	49	0.000	0
20090222 15:20	1.3	-2.0	1.3	89	-0.3	11	32	247	0.00	1021.812	51	0.000	0
20090222 15:25	1.4	-1.9	1.4	88	-0.4	11	27	247	0.00	1021.710	67	0.000	0
20090222 15:30	1.5	-1.4	1.5	88	-0.3	10	19	270	0.00	1021.609	71	0.000	0
20090222 15:35	1.5	-1.8	1.5	88	-0.3	11	24	247	0.00	1021.575	61	0.000	0
20090222 15:40	1.6	-2.1	1.6	88	-0.2	13	31	270	0.00	1021.609	60	0.000	0
20090222 15:45	1.6	-1.7	1.6	88	-0.2	11	23	247	0.00	1021.473	63	0.000	0
20090222 15:50	1.6	-1.7	1.6	87	-0.3	11	26	247	0.00	1021.405	62	0.000	0
20090222 15:55	1.7	-1.2	1.7	87	-0.3	10	19	247	0.00	1021.304	63	0.000	0
20090222 16:00	1.7	-1.2	1.7	87	-0.3	10	21	270	0.00	1021.338	63	0.020	0
20090222 16:05	1.7	-1.6	1.7	87	-0.3	11	23	247	0.00	1021.405	52	0.000	0
20090222 16:10	1.7	-2.3	1.7	87	-0.3	14	24	247	0.00	1021.372	40	0.000	0
20090222 16:15	1.7	-1.9	1.7	87	-0.3	13	26	247	0.00	1021.270	34	0.000	0
20090222 16:20	1.6	-1.3	1.6	87	-0.3	10	19	247	0.00	1021.372	34	0.000	0
20090222 16:25	1.6	-1.7	1.6	87	-0.3	11	24	247	0.00	1021.338	38	0.000	0
20090222 16:30	1.6	-2.0	1.6	87	-0.3	13	23	247	0.00	1021.236	36	0.000	0
20090222 16:35	1.6	-1.7	1.6	87	-0.3	11	21	247	0.00	1021.202	38	0.000	0
20090222 16:40	1.6	-1.7	1.6	87	-0.3	11	19	270	0.00	1021.304	26	0.000	0
20090222 16:45	1.6	-1.4	1.6	87	-0.4	10	19	247	0.00	1021.236	20	0.000	0
20090222 16:50	1.6	-1.4	1.6	87	-0.4	10	19	247	0.00	1021.134	19	0.000	0
20090222 16:55	1.6	-1.4	1.6	87	-0.4	10	19	247	0.00	1021.067	16	0.000	0
20090222 17:00	1.6	-1.4	1.6	87	-0.4	10	19	247	0.00	1020.965	15	0.020	0
20090222 17:05	1.6	-1.4	1.6	87	-0.4	10	18	247	0.00	1021.134	12	0.000	0
20090222 17:10	1.6	-1.4	1.6	88	-0.2	10	19	247	0.00	1021.067	9	0.000	0
20090222 17:15	1.5	-1.4	1.5	88	-0.3	10	21	247	0.00	1020.965	8	0.000	0
20090222 17:20	1.6	-1.4	1.6	88	-0.2	10	19	247	0.00	1020.897	5	0.000	0
20090222 17:25	1.6	-1.4	1.6	87	-0.4	10	21	247	0.00	1020.864	0	0.000	0
20090222 17:30	1.6	-0.9	1.6	88	-0.2	8	16	270	0.00	1020.999	0	0.000	0
20090222 17:35	1.6	-0.9	1.6	88	-0.2	8	16	270	0.00	1021.101	0	0.000	0
20090222 17:40	1.6	-1.4	1.6	88	-0.2	10	21	247	0.00	1021.168	0	0.000	0
20090222 17:45	1.6	-0.9	1.6	88	-0.2	8	14	247	0.00	1021.134	0	0.000	0
20090222 17:50	1.5	-1.0	1.5	88	-0.3	8	16	247	0.00	1020.999	0	0.000	0
20090222 17:55	1.5	-1.4	1.5	88	-0.3	10	21	247	0.00	1021.101	0	0.000	0
20090222 18:00	1.6	-0.9	1.6	88	-0.2	8	18	247	0.00	1021.134	0	0.000	0
20090222 18:05	1.6	-0.9	1.6	88	-0.2	8	18	247	0.00	1021.168	0	0.000	0
20090222 18:10	1.6	-1.4	1.6	88	-0.2	10	19	270	0.00	1021.168	0	0.000	0
20090222 18:15	1.5	-1.4	1.5	88	-0.3	10	19	270	0.00	1021.202	0	0.000	0
20090222 18:20	1.4	-1.9	1.4	89	-0.2	11	19	247	0.00	1021.067	0	0.000	0
20090222 18:25	1.4	-1.5	1.4	89	-0.2	10	21	247	0.00	1020.999	0	0.000	0
20090222 18:30	1.4	-1.5	1.4	89	-0.2	10	21	247	0.00	1020.965	0	0.000	0
20090222 18:35	1.4	-1.9	1.4	89	-0.2	11	21	247	0.00	1020.897	0	0.000	0
20090222 18:40	1.4	-1.9	1.4	89	-0.2	11	24	247	0.00	1020.897	0	0.000	0
20090222 18:45	1.4	-1.6	1.4	89	-0.2	10	24	270	0.00	1020.864	0	0.000	0
20090222 18:50	1.3	-2.0	1.3	89	-0.3	11	23	247	0.00	1020.897	0	0.000	0
20090222 18:55	1.4	-1.9	1.4	89	-0.2	11	21	270	0.00	1020.999	0	0.000	0
20090222 19:00	1.3	-2.4	1.3	89	-0.3	13	26	247	0.00	1020.897	0	0.000	0
20090222 19:05	1.3	-2.0	1.3	89	-0.3	11	23	270	0.00	1020.897	0	0.000	0
20090222 19:10	1.3	-2.0	1.3	89	-0.3	11	24	247	0.00	1020.864	0	0.000	0
20090222 19:15	1.3	-2.0	1.3	90	-0.1	11	21	247	0.00	1020.897	0	0.000	0
20090222 19:20	1.3	-2.4	1.3	90	-0.1	13	26	247	0.00	1020.864	0	0.000	0
20090222 19:25	1.3	-2.0	1.3	90	-0.1	11	23	247	0.00	1020.762	0	0.000	0
20090222 19:30	1.3	-2.0	1.3	90	-0.1	11	23	247	0.00	1020.728	0	0.000	0
20090222 19:35	1.3	-2.0	1.3	89	-0.3	11	24	247	0.00	1020.830	0	0.000	0
20090222 19:40	1.3	-2.0	1.3	90	-0.1	11	24	247	0.00	1020.796	0	0.000	0
20090222 19:45	1.3	-2.0	1.3	90	-0.1	11	21	247	0.00	1020.593	0	0.000	0
20090222 19:50	1.3	-2.0	1.3	90	-0.1	11	26	270	0.00	1020.627	0	0.000	0
20090222 19:55	1.3	-2.4	1.3	90	-0.1	13	26	247	0.00	1020.559	0	0.000	0
20090222 20:00	1.3	-2.0	1.3	90	-0.1	11	23	247	0.00	1020.525	0	0.000	0
20090222 20:05	1.3	-2.1	1.3	91	-0.0	11	19	247	0.00	1020.491	0	0.000	0
20090222 20:10	1.3	-2.1	1.3	91	-0.0	11	21	247	0.00	1020.288	0	0.000	0
20090222 20:15	1.2	-2.5	1.2	91	-0.1	13	27	247	0.00	1020.457	0	0.000	0
20090222 20:20	1.2	-2.8	1.2	91	-0.1	14	23	247	0.00	1020.288	0	0.000	0
20090222 20:25	1.2	-2.1	1.2	91	-0.1	11	19	247	0.00	1020.322	0	0.000	0
20090222 20:30	1.2	-2.2	1.2	91	-0.1	11	19	247	0.00	1020.491	0	0.000	0
20090222 20:35	1.2	-2.2	1.2	91	-0.1	11	19	247	0.00	1020.423	0	0.000	0
20090222 20:40	1.2	-1.7	1.2	91	-0.1	10	21	247	0.00	1020.322	0	0.000	0
20090222 20:45	1.2	-1.7	1.2	91	-0.1	10	24	247	0.00	1020.322	0	0.000	0
20090222 20:50	1.2	-1.7	1.2	91	-0.1	10	19	247	0.00	1020.186	0	0.000	0
20090222 20:55	1.2	-1.3	1.2	91	-0.1	8	16	247	0.00	1020.152	0	0.000	0
20090222 21:00	1.3	-1.7	1.3	91	-0.0	10	24	247	0.00	1020.085	0	0.000	0
20090222 21:05	1.3	-1.6	1.3	91	0.0	10	26	247	0.00	1019.983	0	0.000	0
20090222 21:10	1.3	-2.7	1.3	90	-0.1	14	24	247	0.00	1020.051	0	0.000	0
20090222 21:15	1.3	-2.4	1.3	90	-0.1	13	24	247	0.00	1020.051	0	0.000	0
20090222 21:20	1.3	-1.6	1.3	90	-0.1	10	23	247	0.00	1020.051	0	0.000	0
20090222 21:25	1.3	-1.6	1.3	90	-0.1	10	21	247	0.00	1019.949	0	0.000	0
20090222 21:30	1.3	-2.0	1.3	90	-0.1	11	24	247	0.00	1019.949	0	0.000	0
20090222 21:35	1.4	-1.9	1.4	90	-0.1	11	26	247	0.00	1019.882	0	0.000	0
20090222 21:40	1.4	-2.2	1.4	89	-0.2	13	27	247	0.00	1019.814	0	0.000	0
20090222 21:45	1.4	-1.9	1.4	89	-0.2	11	21	247	0.00	1019.814	0	0.000	0
20090222 21:50	1.4	-1.9	1.4	89	-0.2	11	24	247	0.00	1019.848	0	0.000	0
20090222 21:55	1.4	-1.9	1.4	89	-0.2	11	24	247	0.00	1019.882	0	0.000	0
20090222 22:00	1.4	-1.9	1.4	90	-0.1	11	21	247	0.00	1019.949	0	0.000	0
20090222 22:05	1.3	-2.0	1.3	90	-0.1	11	21	247	0.00	1019.882	0	0.000	0
20090222 22:10	1.3	-2.0	1.3	90	-0.1	11	23	247	0.00	1019.814	0	0.000	0
20090222 22:15	1.3	-1.6	1.3	90	-0.1	10	23	247	0.00	1019.814	0	0.000	0
20090222 22:20	1.3	-2.0	1.3	90	-0.1	11	19	270	0.00	1019.712	0	0.000	0
20090222 22:25	1.3	-2.0	1.3	90	-0.1	11	21	247	0.00	1019.678	0	0.000	0
20090222 22:30	1.3	-1.6	1.3	90	-0.1	10	19	247	0.00	1019.678	0	0.000	0
20090222 22:35	1.3	-2.0	1.3	90	-0.1	11	24	247	0.00	1019.543	0	0.000	0
20090222 22:40	1.3	-1.2	1.3	90	-0.1	8	23	270	0.00	1019.509	0	0.000	0
20090222 22:45	1.3	-2.0	1.3	90	-0.1	11	24	247	0.00	1019.441	0	0.000	0
20090222 22:50	1.3	-1.6	1.3	90	-0.1	10	18	247	0.00	1019.340	0	0.000	0
20090222 22:55	1.3	-1.6	1.3	91	0.0	10	23	247	0.00	1019.306	0	0.000	0
20090222 23:00	1.3	-2.0	1.3	91	0.0	11	21	247	0.00	1019.272	0	0.000	0
20090222 23:05	1.3	-1.6	1.3	91	0.0	10	23	247	0.00	1019.272	0	0.000	0
20090222 23:10	1.3	-1.6	1.3	91	0.0	10	21	270	0.00	1019.272	0	0.000	0
20090222 23:15	1.3	-2.0	1.3	91	0.0	11	21	247	0.00	1019.137	0	0.000	0
20090222 23:20	1.3	-1.6	1.3	91	0.0	10	19	247	0.00	1019.137	0	0.000	0
20090222 23:25	1.3	-1.2	1.3	91	0.0	8	18	247	0.00	1019.137	0	0.000	0
20090222 23:30	1.3	-1.2	1.3	91	-0.0	8	18	247	0.00	1019.103	0	0.000	0
20090222 23:35	1.3	-1.7	1.3	91	-0.0	10	19	247	0.00	1019.035	0	0.000	0
20090222 23:40	1.3	-2.1	1.3	91	-0.0	11	23	247	0.00	1018.933	0	0.000	0
20090222 23:45	1.3	-2.0	1.3	91	0.0	11	23	247	0.00	1018.866	0	0.000	0
20090222 23:50	1.3	-2.0	1.3	91	0.0	11	21	247	0.00	1018.866	0	0.000	0
20090222 23:55	1.3	-2.4	1.3	91	0.0	13	26	247	0.00	1018.764	0	0.000	0
20090222 24:00	1.3	-2.4	1.3	91	0.0	13	23	270	0.00	1018.798	0	0.000	0



Please note the license to use and transfer of this data:
http://creativecommons.org/licenses/by-nc-sa/3.0/deed.en

Bitte beachten sie die Lizenz zur Verwertung und Weitergabe der Daten:
http://creativecommons.org/licenses/by-nc-sa/3.0/deed.de

zurück zur Übersicht der Archivdaten (Monats und Tagesdaten)

Cookies helfen bei der Bereitstellung von Inhalten. Durch die Nutzung dieser Seiten erklärst du dich damit einverstanden, dass Cookies auf deinem Rechner gespeichert werden. Weitere Information